Weather History for Lakeland Region, FL

Change the Weather History Date:

Thursday, March 7, 2013

  Actual Average Record
Temperature  
Mean Temperature 54 °F -  
Max Temperature 68 °F 74 °F 88 °F (1996)
Min Temperature 39 °F 55 °F 39 °F (2010)
Degree Days  
Heating Degree Days 12    
Growing Degree Days 4 (Base 50)    
Moisture  
Dew Point 33 °F    
Average Humidity 60    
Maximum Humidity 81    
Minimum Humidity 23    
Precipitation  
Precipitation 0.00 in - - ()
Sea Level Pressure  
Sea Level Pressure 30.19 in    
Wind  
Wind Speed 6 mph (NNW)    
Max Wind Speed 13 mph    
Max Gust Speed -    
Visibility 13 miles    
Events      
Averages and records for this station are not official NWS values.
T = Trace of Precipitation, MM = Missing Value Source: NWS Daily Summary

Daily Weather History Graph

Daily Weather History Graph

Search for Another Location

Airport:

Trip Planner

Search our weather history database for the weather conditions in past years. The results will help you decide how hot, cold, wet, or windy it might be!

Date:

Astronomy

Mar. 07, 2013 Rise Set
Actual Time 6:46 AM EST 6:32 PM EST
Civil Twilight 6:22 AM EST 6:55 PM EST
Nautical Twilight 5:55 AM EST 7:22 PM EST
Astronomical Twilight 5:28 AM EST 7:50 PM EST
Moon 3:26 AM EST (3/7) 2:35 PM EST (3/7)
Length of Visible Light 12h 33m
Length of Day
11h 46m
Waning Crescent, 20% of the Moon is Illuminated
Mar 7
Waning Crescent
Mar 11
New
Mar 19
First Quarter
Mar 27
Full
Apr 3
Last Quarter

Hourly Weather History & Observations

Time (EST) Temp. Windchill Dew Point Humidity Pressure Visibility Wind Dir Wind Speed Gust Speed Precip Events Conditions
12:15 AM 46.4 °F 43.5 °F 33.8 °F 62% 30.16 in 10.0 mi North 5.8 mph - N/A   Clear
12:35 AM 44.6 °F 40.2 °F 32.0 °F 61% 30.16 in 10.0 mi North 8.1 mph - N/A   Clear
12:55 AM 44.6 °F 41.4 °F 32.0 °F 61% 30.16 in 10.0 mi North 5.8 mph - N/A   Clear
1:15 AM 42.8 °F 41.1 °F 32.0 °F 66% 30.16 in 10.0 mi North 3.5 mph - N/A   Clear
1:35 AM 42.8 °F 40.1 °F 32.0 °F 66% 30.17 in 10.0 mi NNW 4.6 mph - N/A   Clear
1:55 AM 42.8 °F 40.1 °F 32.0 °F 66% 30.17 in 10.0 mi NNW 4.6 mph - N/A   Clear
2:15 AM 42.8 °F 38.6 °F 32.0 °F 66% 30.16 in 10.0 mi NNW 6.9 mph - N/A   Clear
2:35 AM 42.8 °F 39.3 °F 32.0 °F 66% 30.16 in 10.0 mi NNW 5.8 mph - N/A   Clear
2:55 AM 41.0 °F 38.0 °F 32.0 °F 70% 30.16 in 10.0 mi NNW 4.6 mph - N/A   Clear
3:15 AM 41.0 °F 38.0 °F 32.0 °F 70% 30.15 in 10.0 mi NNW 4.6 mph - N/A   Clear
3:35 AM 41.0 °F 35.8 °F 32.0 °F 70% 30.14 in 10.0 mi North 8.1 mph - N/A   Clear
3:55 AM 41.0 °F 34.7 °F 32.0 °F 70% 30.15 in 10.0 mi NNW 10.4 mph - N/A   Clear
4:15 AM 41.0 °F 35.8 °F 32.0 °F 70% 30.16 in 10.0 mi North 8.1 mph - N/A   Clear
4:35 AM 41.0 °F 35.2 °F 32.0 °F 70% 30.16 in 10.0 mi North 9.2 mph - N/A   Clear
4:55 AM 41.0 °F 35.8 °F 32.0 °F 70% 30.16 in 10.0 mi North 8.1 mph - N/A   Clear
5:15 AM 41.0 °F 37.1 °F 32.0 °F 70% 30.17 in 10.0 mi North 5.8 mph - N/A   Clear
5:35 AM 39.2 °F 33.6 °F 32.0 °F 75% 30.18 in 10.0 mi North 8.1 mph - N/A   Clear
5:50 AM 39.2 °F 34.2 °F 30.2 °F 70% 30.18 in 10.0 mi North 6.9 mph - N/A   Clear
6:50 AM 39.2 °F 35.0 °F 30.2 °F 70% 30.20 in 15.0 mi North 5.8 mph - N/A   Clear
7:50 AM 42.8 °F 37.5 °F 30.2 °F 61% 30.22 in 15.0 mi NNE 9.2 mph - N/A   Clear
8:50 AM 46.4 °F 40.7 °F 28.4 °F 50% 30.23 in 15.0 mi North 12.7 mph - N/A   Clear
9:50 AM 50.0 °F - 28.4 °F 43% 30.24 in 15.0 mi North 11.5 mph - N/A   Clear
10:50 AM 53.6 °F - 30.2 °F 41% 30.25 in 15.0 mi NE 8.1 mph - N/A   Clear
11:50 AM 57.2 °F - 30.2 °F 36% 30.24 in 15.0 mi NE 8.1 mph - N/A   Clear
12:55 PM 60.8 °F - 32.0 °F 34% 30.21 in 15.0 mi North 4.6 mph - N/A   Clear
1:50 PM 64.4 °F - 32.0 °F 30% 30.18 in 20.0 mi NNE 5.8 mph - N/A   Clear
2:52 PM 66.2 °F - 32.0 °F 28% 30.16 in 20.0 mi Calm Calm - N/A   Clear
3:50 PM 68.0 °F - 30.2 °F 24% 30.16 in 20.0 mi WNW 6.9 mph - N/A   Clear
4:55 PM 68.0 °F - 28.4 °F 23% 30.16 in 20.0 mi NW 5.8 mph - N/A   Clear
5:54 PM 66.2 °F - 28.4 °F 24% 30.16 in 20.0 mi NW 5.8 mph - N/A   Clear
6:57 PM 57.2 °F - 35.6 °F 44% 30.18 in 20.0 mi West 5.8 mph - N/A   Partly Cloudy
7:50 PM 55.4 °F - 35.6 °F 47% 30.20 in 20.0 mi NW 6.9 mph - N/A   Partly Cloudy
8:55 PM 51.8 °F - 37.4 °F 58% 30.22 in 20.0 mi NNW 5.8 mph - N/A   Clear
9:55 PM 48.2 °F - 39.2 °F 71% 30.23 in 10.0 mi NNW 3.5 mph - N/A   Clear
9:57 PM 48.2 °F - 39.2 °F 71% 30.23 in 20.0 mi NW 4.6 mph - N/A   Clear
10:15 PM 46.4 °F 45.2 °F 39.2 °F 76% 30.23 in 10.0 mi NW 3.5 mph - N/A   Clear
10:35 PM 46.4 °F - 39.2 °F 76% 30.23 in 10.0 mi Calm Calm - N/A   Clear
10:55 PM 46.4 °F 45.2 °F 39.2 °F 76% 30.23 in 10.0 mi NW 3.5 mph - N/A   Clear
11:15 PM 44.6 °F - 37.4 °F 76% 30.23 in 10.0 mi Calm Calm - N/A   Clear
11:35 PM 44.6 °F - 39.2 °F 81% 30.23 in 10.0 mi Calm Calm - N/A   Clear
11:55 PM 42.8 °F 41.1 °F 37.4 °F 81% 30.23 in 10.0 mi East 3.5 mph - N/A   Clear